Change the Weather History Date:

Friday, December 9, 2011

  Actual Average (KGVL) Record (KGVL)
Temperature  
Mean Temperature 42 °F 45 °F  
Max Temperature 53 °F 53 °F 75 °F (2007)
Min Temperature 32 °F 37 °F 17 °F (1968)
Degree Days  
Heating Degree Days 22 20  
Month to date heating degree days 171  
Since 1 July heating degree days 706  
Moisture  
Dew Point 34 °F    
Average Humidity 72    
Maximum Humidity 100    
Minimum Humidity 44    
Precipitation  
Precipitation 0.00 in 0.16 in 1.91 in (2004)
Month to date precipitation 1.53  
Year to date precipitation 51.01  
Sea Level Pressure  
Sea Level Pressure 30.25 in    
Wind  
Wind Speed 1 mph ()    
Max Wind Speed 6 mph    
Max Gust Speed -    
Visibility 10.0 miles    
Events      
T = Trace of Precipitation, MM = Missing Value Source: Averaged Metar Reports

Daily Weather History Graph

Daily Weather History Graph

Search for Another Location

Airport or City:

Trip Planner

Search our weather history database for the weather conditions in past years. The results will help you decide how hot, cold, wet, or windy it might be!

Date:

Astronomy

Dec. 09, 2011 Rise Set
Actual Time 7:32 AM EST 5:27 PM EST
Civil Twilight 7:04 AM EST 5:55 PM EST
Nautical Twilight 6:33 AM EST 6:26 PM EST
Astronomical Twilight 6:02 AM EST 6:57 PM EST
Moon 4:51 PM EST (12/9) 6:38 AM EST (12/9)
Length of Visible Light 10h 51m
Length of Day
9h 55m
Waxing Gibbous, 99% of the Moon is Illuminated
Dec 9
Waxing Gibbous
Dec 10
Full
Dec 17
Last Quarter
Dec 24
New
Jan 1
First Quarter

Hourly Weather History & Observations

Time (EST) Temp. Windchill Dew Point Humidity Pressure Visibility Wind Dir Wind Speed Gust Speed Precip Events Conditions
12:15 AM 37.4 °F 34.9 °F 33.8 °F 87% 30.25 in 10.0 mi ENE 3.5 mph - N/A   Clear
12:35 AM 35.6 °F - 33.8 °F 93% 30.25 in 10.0 mi Calm Calm - N/A   Clear
12:55 AM 35.6 °F - 32.0 °F 87% 30.26 in 10.0 mi Calm Calm - N/A   Clear
1:15 AM 37.4 °F - 32.0 °F 81% 30.24 in 10.0 mi Calm Calm - N/A   Clear
1:35 AM 35.6 °F - 32.0 °F 87% 30.24 in 10.0 mi Calm Calm - N/A   Clear
1:55 AM 35.6 °F - 32.0 °F 87% 30.24 in 10.0 mi Calm Calm - N/A   Clear
2:15 AM 35.6 °F - 32.0 °F 87% 30.25 in 10.0 mi Calm Calm - N/A   Clear
2:35 AM 35.6 °F - 32.0 °F 87% 30.25 in 10.0 mi Calm Calm - N/A   Clear
2:55 AM 35.6 °F - 32.0 °F 87% 30.25 in 10.0 mi Calm Calm - N/A   Clear
3:15 AM 35.6 °F - 32.0 °F 87% 30.25 in 10.0 mi Calm Calm - N/A   Clear
3:35 AM 35.6 °F - 32.0 °F 87% 30.25 in 10.0 mi Calm Calm - N/A   Clear
3:55 AM 33.8 °F - 32.0 °F 93% 30.26 in 10.0 mi Calm Calm - N/A   Clear
4:15 AM 35.6 °F - 32.0 °F 87% 30.26 in 10.0 mi Calm Calm - N/A   Clear
4:35 AM 32.0 °F 28.7 °F 32.0 °F 100% 30.26 in 10.0 mi NE 3.5 mph - N/A   Clear
4:55 AM 33.8 °F - 32.0 °F 93% 30.26 in 10.0 mi Calm Calm - N/A   Clear
5:15 AM 35.6 °F 32.8 °F 32.0 °F 87% 30.26 in 10.0 mi NE 3.5 mph - N/A   Clear
5:35 AM 33.8 °F 30.8 °F 32.0 °F 93% 30.26 in 10.0 mi NNE 3.5 mph - N/A   Clear
5:55 AM 35.6 °F - 32.0 °F 87% 30.26 in 10.0 mi Calm Calm - N/A   Clear
6:15 AM 35.6 °F - 32.0 °F 87% 30.25 in 10.0 mi Calm Calm - N/A   Clear
6:35 AM 32.0 °F 28.7 °F 32.0 °F 100% 30.25 in 10.0 mi East 3.5 mph - N/A   Clear
6:55 AM 35.6 °F - 32.0 °F 87% 30.26 in 10.0 mi Calm Calm - N/A   Clear
7:15 AM 33.8 °F - 32.0 °F 93% 30.26 in 10.0 mi Calm Calm - N/A   Clear
7:35 AM 33.8 °F - 32.0 °F 93% 30.26 in 10.0 mi Calm Calm - N/A   Clear
7:55 AM 35.6 °F - 32.0 °F 87% 30.27 in 10.0 mi Calm Calm - N/A   Clear
8:15 AM 35.6 °F - 32.0 °F 87% 30.28 in 10.0 mi Calm Calm - N/A   Clear
8:35 AM 37.4 °F - 33.8 °F 87% 30.28 in 10.0 mi Calm Calm - N/A   Clear
8:55 AM 41.0 °F 39.0 °F 33.8 °F 76% 30.28 in 10.0 mi East 3.5 mph - N/A   Clear
9:15 AM 41.0 °F - 33.8 °F 76% 30.29 in 10.0 mi Calm Calm - N/A   Clear
9:35 AM 42.8 °F 40.1 °F 33.8 °F 70% 30.29 in 10.0 mi East 4.6 mph - N/A   Clear
9:55 AM 44.6 °F 41.4 °F 33.8 °F 66% 30.29 in 10.0 mi East 5.8 mph - N/A   Clear
10:15 AM 46.4 °F 45.2 °F 33.8 °F 62% 30.30 in 10.0 mi ENE 3.5 mph - N/A   Clear
10:35 AM 46.4 °F - 32.0 °F 57% 30.29 in 10.0 mi Calm Calm - N/A   Clear
10:55 AM 46.4 °F 45.2 °F 32.0 °F 57% 30.29 in 10.0 mi ESE 3.5 mph - N/A   Clear
11:15 AM 50.0 °F - 32.0 °F 50% 30.29 in 10.0 mi ESE 3.5 mph - N/A   Clear
11:35 AM 50.0 °F - 32.0 °F 50% 30.28 in 10.0 mi Calm Calm - N/A   Clear
11:55 AM 50.0 °F - 32.0 °F 50% 30.28 in 10.0 mi Calm Calm - N/A   Clear
12:15 PM 51.8 °F - 32.0 °F 47% 30.27 in 10.0 mi Calm Calm - N/A   Clear
12:35 PM 51.8 °F - 32.0 °F 47% 30.26 in 10.0 mi Calm Calm - N/A   Clear
12:55 PM 51.8 °F - 32.0 °F 47% 30.25 in 10.0 mi Calm Calm - N/A   Clear
1:15 PM 51.8 °F - 33.8 °F 50% 30.24 in 10.0 mi Calm Calm - N/A   Clear
1:35 PM 53.6 °F - 33.8 °F 47% 30.24 in 10.0 mi Calm Calm - N/A   Clear
1:55 PM 53.6 °F - 33.8 °F 47% 30.23 in 10.0 mi SSW 3.5 mph - N/A   Clear
2:15 PM 53.6 °F - 33.8 °F 47% 30.22 in 10.0 mi Calm Calm - N/A   Clear
2:35 PM 53.6 °F - 32.0 °F 44% 30.22 in 10.0 mi Calm Calm - N/A   Clear
2:55 PM 53.6 °F - 32.0 °F 44% 30.21 in 10.0 mi WSW 3.5 mph - N/A   Clear
3:15 PM 53.6 °F - 32.0 °F 44% 30.21 in 10.0 mi Calm Calm - N/A   Clear
3:35 PM 51.8 °F - 32.0 °F 47% 30.21 in 10.0 mi WNW 3.5 mph - N/A   Clear
3:55 PM 51.8 °F - 33.8 °F 50% 30.22 in 10.0 mi Calm Calm - N/A   Clear
4:15 PM 51.8 °F - 35.6 °F 54% 30.23 in 10.0 mi Calm Calm - N/A   Clear
4:35 PM 51.8 °F - 33.8 °F 50% 30.23 in 10.0 mi Calm Calm - N/A   Clear
4:55 PM 50.0 °F - 33.8 °F 54% 30.23 in 10.0 mi Calm Calm - N/A   Clear
5:15 PM 50.0 °F - 35.6 °F 58% 30.22 in 10.0 mi Calm Calm - N/A   Clear
5:35 PM 48.2 °F - 35.6 °F 62% 30.23 in 10.0 mi Calm Calm - N/A   Clear
5:55 PM 46.4 °F - 35.6 °F 66% 30.23 in 10.0 mi Calm Calm - N/A   Clear
6:15 PM 46.4 °F - 35.6 °F 66% 30.22 in 10.0 mi Calm Calm - N/A   Clear
6:35 PM 44.6 °F 43.1 °F 37.4 °F 76% 30.23 in 10.0 mi NW 3.5 mph - N/A   Clear
6:55 PM 44.6 °F 43.1 °F 35.6 °F 71% 30.23 in 10.0 mi NW 3.5 mph - N/A   Clear
7:15 PM 44.6 °F - 37.4 °F 76% 30.23 in 10.0 mi Calm Calm - N/A   Clear
7:35 PM 44.6 °F 43.1 °F 37.4 °F 76% 30.25 in 10.0 mi WNW 3.5 mph - N/A   Clear
7:55 PM 44.6 °F - 35.6 °F 71% 30.26 in 10.0 mi Calm Calm - N/A   Clear
8:15 PM 44.6 °F - 35.6 °F 71% 30.26 in 10.0 mi Calm Calm - N/A   Clear
8:35 PM 44.6 °F - 35.6 °F 71% 30.26 in 10.0 mi Calm Calm - N/A   Clear
8:55 PM 44.6 °F - 35.6 °F 71% 30.26 in 10.0 mi Calm Calm - N/A   Clear
9:15 PM 42.8 °F 41.1 °F 35.6 °F 76% 30.26 in 10.0 mi NW 3.5 mph - N/A   Clear
9:35 PM 42.8 °F - 37.4 °F 81% 30.26 in 10.0 mi Calm Calm - N/A   Clear
9:55 PM 42.8 °F 41.1 °F 35.6 °F 76% 30.26 in 10.0 mi NW 3.5 mph - N/A   Clear
10:15 PM 41.0 °F 39.0 °F 35.6 °F 81% 30.27 in 10.0 mi WNW 3.5 mph - N/A   Clear
10:35 PM 41.0 °F - 35.6 °F 81% 30.27 in 10.0 mi Calm Calm - N/A   Clear
10:55 PM 41.0 °F 38.0 °F 35.6 °F 81% 30.26 in 10.0 mi NW 4.6 mph - N/A   Clear
11:15 PM 41.0 °F 39.0 °F 35.6 °F 81% 30.27 in 10.0 mi WNW 3.5 mph - N/A   Clear
11:35 PM 39.2 °F 37.0 °F 35.6 °F 87% 30.27 in 10.0 mi WNW 3.5 mph - N/A   Clear
11:55 PM 39.2 °F 37.0 °F 35.6 °F 87% 30.26 in 10.0 mi WNW 3.5 mph - N/A   Clear